Palma de Mallorca, Spain

10:53 AM CET on February 24, 2017 (GMT +0100)
Palma De Mallorca

Weather History for LEPA - April, 2014

Change the Weather History Date:

Wednesday, April 23, 2014

  Actual Average Record
Temperature  
Mean Temperature 62 °F -  
Max Temperature 72 °F 71 °F 78 °F (2007)
Min Temperature 51 °F 51 °F 40 °F (2013)
Degree Days  
Heating Degree Days 4    
Growing Degree Days 12 (Base 50)    
Moisture  
Dew Point 55 °F    
Average Humidity 77    
Maximum Humidity 100    
Minimum Humidity 41    
Precipitation  
Precipitation 0.00 in 0.04 in - ()
Sea Level Pressure  
Sea Level Pressure 30.09 in    
Wind  
Wind Speed 5 mph ()    
Max Wind Speed 17 mph    
Max Gust Speed -    
Visibility 7.5 miles    
Events      
Averages and records for this station are not official NWS values.
T = Trace of Precipitation, MM = Missing Value Source: Averaged Metar Reports

Daily Weather History Graph

Daily Weather History Graph

Search for Another Location

Airport or City:

Trip Planner

Search our weather history database for the weather conditions in past years. The results will help you decide how hot, cold, wet, or windy it might be!

Date:

Astronomy

Apr. 23, 2014 Rise Set
Actual Time 7:00 AM CEST 8:34 PM CEST
Civil Twilight 6:32 AM CEST 9:03 PM CEST
Nautical Twilight 5:58 AM CEST 9:37 PM CEST
Astronomical Twilight 5:21 AM CEST 10:14 PM CEST
Moon 3:20 AM CEST (4/23) 2:27 PM CEST (4/23)
Length of Visible Light 14h 30m
Length of Day
13h 34m
Last Quarter, 38% of the Moon is Illuminated
Apr 23
Last Quarter
Apr 29
New
May 7
First Quarter
May 14
Full
May 21
Last Quarter

Hourly Weather History & Observations

Time (CEST) Temp. Dew Point Humidity Pressure Visibility Wind Dir Wind Speed Gust Speed Precip Events Conditions
12:00 AM 58 °F 52 °F 76% 30.06 in - Calm Calm - -  
12:00 AM 57.2 °F 51.8 °F 82% 30.06 in 6.2 mi Variable 1.2 mph - N/A   Partly Cloudy
12:30 AM 57.2 °F 51.8 °F 82% 30.06 in 6.2 mi ENE 2.3 mph - N/A   Partly Cloudy
1:00 AM 56 °F 52 °F 82% 30.08 in - Calm Calm - -  
1:00 AM 57.2 °F 51.8 °F 82% 30.06 in 6.2 mi Calm Calm - N/A   Partly Cloudy
1:30 AM 57.2 °F 53.6 °F 88% 30.06 in 6.2 mi Calm Calm - N/A   Partly Cloudy
2:00 AM 54 °F 50 °F 83% 30.08 in 8 mi ENE 2.3 mph - -   Scattered Clouds
2:00 AM 53.6 °F 50.0 °F 88% 30.06 in 6.2 mi Variable 1.2 mph - N/A   Partly Cloudy
2:30 AM 53.6 °F 51.8 °F 94% 30.06 in 6.2 mi Calm Calm - N/A   Partly Cloudy
3:00 AM 54 °F 51 °F 86% 30.08 in - NE 2.3 mph - -  
3:00 AM 55.4 °F 51.8 °F 88% 30.06 in 6.2 mi ENE 3.5 mph - N/A   Partly Cloudy
3:30 AM 55.4 °F 51.8 °F 88% 30.06 in 6.2 mi ENE 2.3 mph - N/A   Partly Cloudy
4:00 AM 53 °F 51 °F 88% 30.09 in - East 3.5 mph - -  
4:00 AM 53.6 °F 51.8 °F 94% 30.06 in 6.2 mi East 3.5 mph - N/A   Partly Cloudy
4:30 AM 51.8 °F 50.0 °F 94% 30.06 in 6.2 mi Calm Calm - N/A   Partly Cloudy
5:00 AM 52 °F 50 °F 89% 30.08 in 8 mi NE 3.5 mph - -  
5:00 AM 51.8 °F 50.0 °F 94% 30.06 in - NE 3.5 mph - N/A   Clear
5:30 AM 51.8 °F 50.0 °F 94% 30.06 in - NE 6.9 mph - N/A   Clear
6:00 AM 52 °F 50 °F 91% 30.08 in - NE 3.5 mph - -  
6:00 AM 51.8 °F 50.0 °F 94% 30.06 in - NE 3.5 mph - N/A   Clear
6:30 AM 51.8 °F 50.0 °F 94% 30.06 in - NE 2.3 mph - N/A   Clear
7:00 AM 52 °F 50 °F 92% 30.09 in - Calm Calm - -  
7:00 AM 51.8 °F 51.8 °F 100% 30.06 in - NE 5.8 mph - N/A   Clear
7:30 AM 51.8 °F 50.0 °F 94% 30.06 in - NE 4.6 mph - N/A   Clear
8:00 AM 56 °F 52 °F 80% 30.09 in 19 mi North 2.3 mph - -   Scattered Clouds
8:00 AM 55.4 °F 32.0 °F 41% 30.09 in - North 2.3 mph - N/A   Clear
8:30 AM 59.0 °F 53.6 °F 82% 30.09 in - NNE 4.6 mph - N/A   Clear
9:00 AM 63 °F 54 °F 66% 30.11 in - NE 2.3 mph - -  
9:00 AM 60.8 °F 55.4 °F 82% 30.09 in - NNE 4.6 mph - N/A   Clear
9:30 AM 64.4 °F 55.4 °F 73% 30.09 in - ENE 4.6 mph - N/A   Clear
10:00 AM 69 °F 54 °F 49% 30.12 in - SSE 2.3 mph - -  
10:00 AM 66.2 °F 55.4 °F 68% 30.09 in - SSW 4.6 mph - N/A   Clear
11:00 AM 69 °F 55 °F 52% 30.13 in 19 mi SW 9.2 mph - -   Scattered Clouds
11:00 AM 68.0 °F 55.4 °F 64% 30.12 in 6.2 mi SW 6.9 mph - N/A   Partly Cloudy
11:30 AM 68.0 °F 57.2 °F 68% 30.12 in 6.2 mi WSW 9.2 mph - N/A   Partly Cloudy
12:00 PM 70 °F 56 °F 53% 30.13 in - SW 11.5 mph - -  
12:00 PM 68.0 °F 57.2 °F 68% 30.12 in 6.2 mi WSW 10.4 mph - N/A   Partly Cloudy
12:30 PM 69.8 °F 57.2 °F 64% 30.12 in 6.2 mi WSW 12.7 mph - N/A   Partly Cloudy
1:00 PM 71 °F 58 °F 54% 30.13 in - SW 16.1 mph - -  
1:00 PM 69.8 °F 59.0 °F 68% 30.12 in 6.2 mi WSW 13.8 mph - N/A   Partly Cloudy
1:30 PM 69.8 °F 59.0 °F 68% 30.12 in 6.2 mi SW 16.1 mph - N/A   Partly Cloudy
2:00 PM 72 °F 56 °F 48% 30.12 in 19 mi SSW 17.3 mph - -   Scattered Clouds
2:00 PM 68.0 °F 57.2 °F 68% 30.09 in 6.2 mi SW 16.1 mph - N/A   Partly Cloudy
2:30 PM 69.8 °F 57.2 °F 64% 30.09 in 6.2 mi SW 17.3 mph - N/A   Partly Cloudy
3:00 PM 72 °F 55 °F 45% 30.12 in - SW 16.1 mph - -  
3:00 PM 69.8 °F 57.2 °F 64% 30.09 in 6.2 mi WSW 16.1 mph - N/A   Partly Cloudy
3:30 PM 69.8 °F 59.0 °F 68% 30.09 in 6.2 mi WSW 13.8 mph - N/A   Partly Cloudy
4:00 PM 71 °F 56 °F 49% 30.11 in - SW 15.0 mph - -  
4:00 PM 69.8 °F 57.2 °F 64% 30.09 in 6.2 mi WSW 15.0 mph - N/A   Partly Cloudy
4:30 PM 69.8 °F 53.6 °F 56% 30.09 in 6.2 mi SW 13.8 mph - N/A   Partly Cloudy
5:00 PM 71 °F 58 °F 54% 30.10 in 19 mi SW 13.8 mph - -   Scattered Clouds
5:00 PM 69.8 °F 59.0 °F 68% 30.09 in 6.2 mi WSW 15.0 mph - N/A   Partly Cloudy
5:30 PM 68.0 °F 59.0 °F 73% 30.09 in 6.2 mi SW 11.5 mph - N/A   Partly Cloudy
6:00 PM 69 °F 60 °F 65% 30.09 in - SSW 12.7 mph - -  
6:00 PM 66.2 °F 59.0 °F 78% 30.09 in 6.2 mi SW 10.4 mph - N/A   Partly Cloudy
6:30 PM 68.0 °F 59.0 °F 73% 30.09 in 6.2 mi SW 10.4 mph - N/A   Partly Cloudy
7:00 PM 68 °F 58 °F 64% 30.09 in - SW 13.8 mph - -  
7:00 PM 66.2 °F 59.0 °F 78% 30.06 in 6.2 mi SW 11.5 mph - N/A   Partly Cloudy
7:30 PM 66.2 °F 60.8 °F 83% 30.09 in 6.2 mi SW 9.2 mph - N/A   Partly Cloudy
8:00 PM 65 °F 60 °F 81% 30.10 in 11 mi SSW 9.2 mph - -   Scattered Clouds
8:00 PM 66.2 °F 60.8 °F 83% 30.09 in 6.2 mi SW 8.1 mph - N/A   Partly Cloudy
8:30 PM 64.4 °F 60.8 °F 88% 30.09 in 4.3 mi SW 5.8 mph - N/A   Scattered Clouds
9:00 PM 64 °F 60 °F 84% 30.12 in - SW 6.9 mph - -  
9:00 PM 64.4 °F 60.8 °F 88% 30.09 in 4.3 mi SW 3.5 mph - N/A   Partly Cloudy
9:30 PM 64.4 °F 60.8 °F 88% 30.12 in 6.2 mi Variable 2.3 mph - N/A   Partly Cloudy
10:00 PM 64 °F 60 °F 84% 30.13 in - SSW 5.8 mph - -  
10:00 PM 64.4 °F 60.8 °F 88% 30.12 in 6.2 mi Calm Calm - N/A   Partly Cloudy
10:30 PM 62.6 °F 60.8 °F 94% 30.12 in 6.2 mi SW 2.3 mph - N/A   Partly Cloudy
11:00 PM 62 °F 59 °F 87% 30.14 in 7 mi WSW 3.5 mph - -   Scattered Clouds
11:00 PM 62.6 °F 59.0 °F 88% 30.12 in 6.2 mi Calm Calm - N/A   Partly Cloudy
11:30 PM 60.8 °F 59.0 °F 94% 30.12 in 6.2 mi Calm Calm - N/A   Partly Cloudy